CW6596 Weather Reports


time (UTC)temp
F
wind
direction
speed
knots
gust
knots
rain 1hr
in
rain 24hr
in
rain mn
in
humidity
%
barometer
mb
20260508110036 44 258 7.0 11.3 0.00 0.00 0.00 73 1006.3
20260508104532 43 273 4.3 8.7 0.00 0.00 0.00 74 1006.2
20260508103036 43 251 5.2 7.0 0.00 0.00 0.00 75 1006.0
20260508101528 42 286 3.5 7.0 0.00 0.00 0.00 76 1005.6
20260508100026 41 278 3.5 6.1 0.00 0.00 0.00 77 1005.4
20260508094525 40 302 3.5 7.0 0.00 0.00 0.00 78 1005.3
20260508093024 40 282 4.3 7.0 0.00 0.00 0.00 77 1005.2
20260508091527 41 273 5.2 7.8 0.00 0.00 0.00 76 1005.2
20260508090026 41 283 5.2 8.7 0.00 0.00 0.00 74 1005.0
20260508084523 41 297 5.2 10.4 0.00 0.00 0.00 73 1004.8
20260508083022 41 280 6.1 9.6 0.00 0.00 0.00 73 1004.9
20260508081552 41 287 5.2 8.7 0.00 0.00 0.00 73 1004.9
20260508080020 39 285 5.2 7.8 0.00 0.00 0.00 76 1004.9
20260508074519 41 306 3.5 5.2 0.00 0.00 0.00 72 1004.8
20260508073016 41 303 3.5 7.0 0.00 0.00 0.00 71 1004.8
20260508071534 42 297 5.2 8.7 0.00 0.00 0.00 71 1004.6
20260508070014 42 295 4.3 7.0 0.00 0.02 0.00 70 1004.6
20260508064513 42 289 5.2 7.8 0.00 0.02 0.00 70 1004.7
20260508063025 42 276 6.1 8.7 0.00 0.02 0.00 69 1004.8
20260508061511 43 287 4.3 6.1 0.00 0.02 0.00 67 1005.1
20260508060009 43 283 4.3 9.6 0.00 0.20 0.00 66 1005.0
20260508054508 43 287 7.0 11.3 0.00 0.20 0.00 68 1005.0
20260508053007 42 304 4.3 7.0 0.00 0.20 0.00 69 1005.4
20260508051503 42 295 5.2 8.7 0.00 0.20 0.00 71 1005.1
20260508044600 44 310 3.5 7.0 0.00 0.20 0.20 66 1005.4
20260508043058 44 303 5.2 8.7 0.00 0.20 0.20 66 1005.4
20260508041556 43 297 5.2 7.0 0.00 0.20 0.20 67 1005.5
20260508040059 42 330 4.3 7.0 0.00 0.20 0.20 71 1005.5
20260508034552 43 322 5.2 8.7 0.00 0.20 0.20 69 1005.6
20260508033049 44 337 4.3 8.7 0.00 0.20 0.20 70 1005.7
20260508031548 44 290 4.3 7.8 0.00 0.20 0.20 66 1005.4
20260508030045 45 307 3.5 7.0 0.00 0.33 0.20 64 1005.4
20260508024549 45 326 3.5 8.7 0.00 0.33 0.20 65 1005.3
20260508023043 45 6 4.3 7.8 0.00 0.33 0.20 65 1005.0
20260508021541 46 6 3.5 6.1 0.00 0.33 0.20 65 1005.2
20260508020039 47 31 3.5 8.7 0.00 0.54 0.20 67 1005.3
20260508014542 48 324 4.3 10.4 0.00 0.54 0.20 67 1005.4
20260508013042 48 314 6.1 11.3 0.00 0.54 0.20 66 1005.4
20260508011537 49 6 6.1 13.0 0.00 0.54 0.20 66 1005.0
20260508010037 49 319 7.0 12.2 0.00 0.73 0.20 71 1004.7
20260508004536 48 320 4.3 8.7 0.00 0.73 0.20 79 1004.6
20260508003034 49 320 4.3 7.8 0.00 0.73 0.20 81 1004.4
20260508001534 50 283 5.2 8.7 0.00 0.73 0.20 82 1004.2
20260508000032 51 260 2.6 7.8 0.00 0.86 0.20 79 1004.0
20260507234532 51 260 3.5 7.0 0.00 0.86 0.20 79 1003.7
20260507233040 52 219 3.5 7.0 0.00 0.86 0.20 77 1003.4
20260507231536 52 196 4.3 6.1 0.00 0.86 0.20 77 1003.2
20260507230030 52 242 4.3 7.8 0.00 0.90 0.20 75 1003.0
20260507224537 54 227 3.5 6.1 0.00 0.90 0.20 72 1002.9
20260507223033 54 157 3.5 8.7 0.00 0.90 0.20 72 1002.6
20260507221536 54 239 2.6 5.2 0.00 0.90 0.20 73 1002.7
20260507220027 54 216 5.2 10.4 0.00 0.93 0.20 70 1002.7
20260507214527 54 225 3.5 10.4 0.00 0.93 0.20 72 1002.7
20260507213029 54 183 4.3 12.2 0.00 0.93 0.20 72 1002.7
20260507211527 54 152 2.6 10.4 0.00 0.93 0.20 73 1002.9
20260507210025 55 153 3.5 10.4 0.00 0.93 0.20 73 1002.8
20260507204525 56 199 7.0 11.3 0.00 0.93 0.20 73 1002.7
20260507203032 55 166 5.2 10.4 0.00 0.93 0.20 72 1002.7
20260507201527 56 217 5.2 12.2 0.00 0.93 0.20 71 1002.7
20260507200022 56 206 6.1 13.9 0.00 0.93 0.20 73 1002.9
20260507194522 57 190 6.1 13.0 0.00 0.93 0.20 72 1002.9
20260507193023 56 201 7.0 14.8 0.00 0.93 0.20 70 1002.9
20260507191521 58 154 4.3 14.8 0.00 0.93 0.20 69 1002.9
20260507190022 57 184 6.1 10.4 0.00 0.93 0.20 67 1003.1
20260507184520 57 217 6.1 15.6 0.00 0.93 0.20 71 1003.2
20260507183020 59 173 5.2 13.9 0.00 0.93 0.20 68 1003.3
20260507181524 58 187 9.6 15.6 0.00 0.93 0.20 71 1003.3
20260507180024 57 210 6.1 13.9 0.00 0.93 0.20 70 1003.4
20260507174520 56 189 8.7 14.8 0.00 0.93 0.20 73 1003.6
20260507173029 60 224 6.1 10.4 0.00 0.93 0.20 64 1003.3
20260507171516 60 266 9.6 12.2 0.00 0.93 0.20 64 1003.3
20260507170016 59 267 6.1 10.4 0.00 0.93 0.20 64 1003.3
20260507164512 58 116 5.2 9.6 0.00 0.93 0.20 66 1003.5
20260507163012 57 174 6.1 9.6 0.00 0.93 0.20 70 1003.7
20260507161511 58 173 2.6 9.6 0.00 0.93 0.20 72 1003.7
20260507160010 57 189 2.6 7.0 0.00 0.93 0.20 73 1003.9
20260507154509 57 194 4.3 8.7 0.00 0.93 0.20 69 1004.2
20260507153007 57 151 1.7 6.1 0.00 0.93 0.20 72 1004.2
20260507151505 56 252 5.2 7.8 0.00 0.93 0.20 73 1004.4
20260507150007 56 248 4.3 9.6 0.00 0.93 0.20 74 1004.4
20260507144519 54 240 4.3 7.0 0.00 0.93 0.20 76 1004.5
20260507143003 54 248 4.3 10.4 0.00 0.93 0.20 77 1004.5
20260507141503 55 218 4.3 8.7 0.00 0.93 0.20 76 1004.7
20260507140002 54 264 3.5 10.4 0.00 0.93 0.20 77 1004.8
20260507134609 54 292 5.2 8.7 0.00 0.93 0.20 77 1004.8
20260507133133 54 241 3.5 11.3 0.00 0.93 0.20 83 1005.1
20260507131557 53 314 5.2 14.8 0.00 0.93 0.20 87 1005.4
20260507130106 52 305 4.3 8.7 0.00 0.93 0.20 86 1005.0
20260507124554 51 318 3.5 8.7 0.00 0.93 0.20 85 1005.2
20260507123052 51 314 4.3 10.4 0.00 0.93 0.20 90 1004.8
20260507121603 49 312 6.1 8.7 0.00 0.93 0.20 91 1004.6
20260507120056 49 296 4.3 7.8 0.00 0.93 0.20 92 1004.8
20260507114627 48 274 2.6 6.1 0.00 0.93 0.20 92 1005.8
20260507113045 47 278 2.6 5.2 0.00 0.93 0.20 93 1005.5
20260507111547 47 273 0.9 5.2 0.00 0.93 0.20 92 1005.6